Weather History for Corsicana, TX

Change the Weather History Date:

Wednesday, February 5, 2014

  Actual Average (KACT) Record (KACT)
Temperature  
Mean Temperature 32 °F 49 °F  
Max Temperature 39 °F 60 °F 82 °F (1942)
Min Temperature 26 °F 38 °F 14 °F (1912)
Degree Days  
Heating Degree Days 32 16  
Month to date heating degree days 83  
Since 1 July heating degree days 1491  
Cooling Degree Days 0 0  
Month to date cooling degree days 0  
Year to date cooling degree days 3  
Moisture  
Dew Point 24 °F    
Average Humidity 72    
Maximum Humidity 97    
Minimum Humidity 59    
Precipitation  
Precipitation 0.00 in 0.08 in 2.11 in (1961)
Month to date precipitation 0.40  
Year to date precipitation 2.52  
Snow  
Snow 0.00 in 0.00 in 1.00 in (1923)
Month to date snowfall 0.1  
Since 1 July snowfall 0.5  
Snow Depth -    
Sea Level Pressure  
Sea Level Pressure 30.39 in    
Wind  
Wind Speed 11 mph (North)    
Max Wind Speed 20 mph    
Max Gust Speed 28 mph    
Visibility 10 miles    
Events      
T = Trace of Precipitation, MM = Missing Value Source: NWS Daily Summary

Daily Weather History Graph

Daily Weather History Graph

Search for Another Location

Airport:

Trip Planner

Search our weather history database for the weather conditions in past years. The results will help you decide how hot, cold, wet, or windy it might be!

Date:

Astronomy

Feb. 05, 2014 Rise Set
Actual Time 7:16 AM CST 6:03 PM CST
Civil Twilight 6:50 AM CST 6:28 PM CST
Nautical Twilight 6:21 AM CST 6:57 PM CST
Astronomical Twilight 5:53 AM CST 7:26 PM CST
Moon 10:57 AM CST (2/5) No Moon Set
Length of Visible Light 11h 37m
Length of Day
10h 46m
Waxing Crescent, 39% of the Moon is Illuminated
Feb 5
Waxing Crescent
Feb 6
First Quarter
Feb 14
Full
Feb 22
Last Quarter
Mar 1
New

Hourly Weather History & Observations

Time (CST) Temp. Windchill Dew Point Humidity Pressure Visibility Wind Dir Wind Speed Gust Speed Precip Events Conditions
12:10 AM 37.9 °F 32.7 °F 37.0 °F 97% 30.15 in 10.0 mi NW 6.9 mph - N/A   Scattered Clouds
12:44 AM 37.0 °F 34.5 °F 36.0 °F 96% 30.17 in 10.0 mi NNW 3.5 mph - N/A   Mostly Cloudy
12:53 AM 39.0 °F 36.8 °F 37.0 °F 93% 30.19 in 10.0 mi NW 3.5 mph - N/A   Mostly Cloudy
1:14 AM 39.0 °F 34.8 °F 35.1 °F 86% 30.19 in 10.0 mi NNW 5.8 mph - N/A   Partly Cloudy
1:53 AM 37.0 °F 31.6 °F 33.1 °F 86% 30.20 in 10.0 mi NNW 6.9 mph - N/A   Clear
2:38 AM 36.0 °F 31.1 °F 33.1 °F 89% 30.22 in 9.0 mi NW 5.8 mph - N/A   Mostly Cloudy
2:53 AM 37.0 °F 31.0 °F 33.1 °F 86% 30.23 in 10.0 mi NNW 8.1 mph - N/A   Mostly Cloudy
3:53 AM 37.0 °F 28.9 °F 32.0 °F 82% 30.25 in 10.0 mi North 12.7 mph - N/A   Overcast
4:53 AM 36.0 °F 25.6 °F 28.9 °F 76% 30.27 in 10.0 mi North 18.4 mph 27.6 mph N/A   Overcast
5:53 AM 32.0 °F 21.6 °F 25.0 °F 75% 30.32 in 10.0 mi North 15.0 mph 24.2 mph N/A   Mostly Cloudy
6:53 AM 32.0 °F 21.6 °F 24.1 °F 73% 30.36 in 10.0 mi NNW 15.0 mph 24.2 mph N/A   Overcast
7:53 AM 32.0 °F 23.6 °F 24.1 °F 73% 30.41 in 10.0 mi North 10.4 mph 18.4 mph N/A   Overcast
8:53 AM 30.9 °F 19.1 °F 21.0 °F 67% 30.46 in 10.0 mi NNW 18.4 mph 25.3 mph N/A   Overcast
9:53 AM 30.9 °F 20.7 °F 21.9 °F 69% 30.50 in 10.0 mi North 13.8 mph - N/A   Overcast
10:21 AM 30.9 °F 18.7 °F 21.0 °F 67% 30.51 in 10.0 mi North 19.6 mph - N/A   Scattered Clouds
10:41 AM 30.9 °F 18.7 °F 21.0 °F 67% 30.51 in 10.0 mi North 19.6 mph 25.3 mph N/A   Mostly Cloudy
10:53 AM 30.9 °F 19.1 °F 21.0 °F 67% 30.52 in 10.0 mi NNW 18.4 mph - N/A   Overcast
11:53 AM 32.0 °F 20.8 °F 21.0 °F 64% 30.51 in 10.0 mi North 17.3 mph - N/A   Mostly Cloudy
12:53 PM 35.1 °F 24.8 °F 21.9 °F 59% 30.48 in 10.0 mi North 17.3 mph 25.3 mph N/A   Scattered Clouds
1:53 PM 33.1 °F 22.6 °F 21.0 °F 61% 30.45 in 9.0 mi North 16.1 mph - N/A   Partly Cloudy
2:53 PM 33.1 °F 23.0 °F 21.0 °F 61% 30.45 in 10.0 mi North 15.0 mph - N/A   Partly Cloudy
3:22 PM 33.1 °F 21.9 °F 21.0 °F 61% 30.44 in 10.0 mi North 18.4 mph - N/A   Mostly Cloudy
3:32 PM 33.1 °F 22.2 °F 21.0 °F 61% 30.43 in 10.0 mi NNW 17.3 mph 24.2 mph N/A   Partly Cloudy
3:53 PM 32.0 °F 22.1 °F 19.9 °F 61% 30.45 in 10.0 mi North 13.8 mph 21.9 mph N/A   Partly Cloudy
4:53 PM 32.0 °F 22.1 °F 19.9 °F 61% 30.46 in 10.0 mi North 13.8 mph - N/A   Partly Cloudy
5:53 PM 30.0 °F 19.5 °F 19.0 °F 64% 30.46 in 10.0 mi North 13.8 mph - N/A   Clear
6:53 PM 28.9 °F 19.2 °F 19.0 °F 67% 30.48 in 10.0 mi NNE 11.5 mph - N/A   Clear
7:53 PM 28.9 °F 18.6 °F 18.0 °F 64% 30.49 in 10.0 mi North 12.7 mph 21.9 mph N/A   Clear
8:53 PM 28.0 °F 18.6 °F 18.0 °F 66% 30.50 in 10.0 mi North 10.4 mph - N/A   Clear
9:53 PM 27.0 °F 14.7 °F 17.1 °F 66% 30.49 in 10.0 mi North 16.1 mph 25.3 mph N/A   Clear
10:53 PM 26.1 °F 15.0 °F 17.1 °F 69% 30.50 in 10.0 mi North 12.7 mph - N/A   Clear
11:53 PM 26.1 °F 15.0 °F 16.0 °F 66% 30.51 in 10.0 mi North 12.7 mph - N/A   Clear